Weather History for KMAE - September, 2013

Change the Weather History Date:

Friday, September 20, 2013

  Actual Average Record
Temperature  
Mean Temperature 73 °F 72 °F  
Max Temperature 90 °F 89 °F 102 °F (2000)
Min Temperature 55 °F 55 °F 44 °F (2007)
Degree Days  
Heating Degree Days 0    
Month to date heating degree days 0  
Since 1 July heating degree days 0  
Cooling Degree Days 8    
Month to date cooling degree days 219  
Year to date cooling degree days 1661  
Growing Degree Days 22 (Base 50)    
Moisture  
Dew Point 47 °F    
Average Humidity 46    
Maximum Humidity 78    
Minimum Humidity 14    
Precipitation  
Precipitation 0.00 in 0.01 in 0.09 in (2005)
Month to date precipitation 0.00 0.14  
Year to date precipitation 3.53 8.18  
Since 1 July precipitation 0.01 0.18  
Snow  
Snow 0.00 in - - ()
Month to date snowfall 0.0  
Since 1 July snowfall 0.0  
Since 1 September snowfall 0.0  
Snow Depth 0.00 in    
Sea Level Pressure  
Sea Level Pressure 29.77 in    
Wind  
Wind Speed 7 mph (NW)    
Max Wind Speed 16 mph    
Max Gust Speed 22 mph    
Visibility 10 miles    
Events      
T = Trace of Precipitation, MM = Missing Value Source: NWS Daily Summary

Daily Weather History Graph

Daily Weather History Graph

Search for Another Location

Airport or City:

Trip Planner

Search our weather history database for the weather conditions in past years. The results will help you decide how hot, cold, wet, or windy it might be!

Date:

Astronomy

Sep. 20, 2013 Rise Set
Actual Time 6:46 AM PDT 6:59 PM PDT
Civil Twilight 6:21 AM PDT 7:25 PM PDT
Nautical Twilight 5:50 AM PDT 7:56 PM PDT
Astronomical Twilight 5:19 AM PDT 8:26 PM PDT
Moon 7:40 PM PDT (9/20) 8:04 AM PDT (9/20)
Length of Visible Light 13h 04m
Length of Day
12h 12m
Full, 98% of the Moon is Illuminated
Sep 20
Full
Sep 26
Last Quarter
Oct 4
New
Oct 11
First Quarter
Oct 18
Full

Hourly Weather History & Observations

Time (PDT) Temp. Dew Point Humidity Pressure Visibility Wind Dir Wind Speed Gust Speed Precip Events Conditions
12:53 AM 62.1 °F 50.0 °F 65% 29.76 in 10.0 mi Calm Calm - N/A   Clear
1:53 AM 61.0 °F 48.0 °F 62% 29.75 in 10.0 mi East 3.5 mph - N/A   Clear
2:53 AM 60.1 °F 48.9 °F 67% 29.75 in 10.0 mi Calm Calm - N/A   Clear
3:53 AM 61.0 °F 45.0 °F 56% 29.74 in 10.0 mi ENE 3.5 mph - N/A   Clear
4:53 AM 57.9 °F 45.0 °F 62% 29.74 in 10.0 mi SW 4.6 mph - N/A   Clear
5:53 AM 55.0 °F 48.0 °F 77% 29.74 in 10.0 mi Calm Calm - N/A   Clear
6:53 AM 55.9 °F 46.9 °F 72% 29.75 in 10.0 mi Calm Calm - N/A   Clear
7:53 AM 63.0 °F 48.0 °F 58% 29.77 in 10.0 mi NE 4.6 mph - N/A   Clear
8:53 AM 70.0 °F 48.0 °F 46% 29.78 in 10.0 mi East 4.6 mph - N/A   Clear
9:53 AM 77.0 °F 44.1 °F 31% 29.79 in 10.0 mi Calm Calm - N/A   Clear
10:53 AM 82.0 °F 44.1 °F 26% 29.78 in 10.0 mi NW 3.5 mph - N/A   Clear
11:53 AM 84.9 °F 42.1 °F 22% 29.78 in 10.0 mi WNW 8.1 mph - N/A   Clear
12:53 PM 88.0 °F 42.1 °F 20% 29.78 in 10.0 mi WNW 10.4 mph - N/A   Clear
1:53 PM 90.0 °F 33.1 °F 13% 29.77 in 10.0 mi NW 11.5 mph - N/A   Clear
2:53 PM 90.0 °F 36.0 °F 15% 29.76 in 10.0 mi NW 10.4 mph 16.1 mph N/A   Clear
3:53 PM 89.1 °F 43.0 °F 20% 29.75 in 10.0 mi WNW 13.8 mph - N/A   Clear
4:53 PM 86.0 °F 46.9 °F 26% 29.74 in 10.0 mi NW 13.8 mph 19.6 mph N/A   Clear
5:53 PM 82.9 °F 48.0 °F 29% 29.74 in 10.0 mi WNW 10.4 mph - N/A   Clear
6:53 PM 79.0 °F 48.9 °F 35% 29.75 in 10.0 mi WNW 11.5 mph - N/A   Clear
7:53 PM 75.0 °F 50.0 °F 41% 29.78 in 10.0 mi NW 9.2 mph - N/A   Clear
8:53 PM 69.1 °F 52.0 °F 54% 29.80 in 10.0 mi West 5.8 mph - N/A   Clear
10:53 PM 66.0 °F 55.9 °F 70% 29.82 in 10.0 mi WNW 8.1 mph - N/A   Clear
11:53 PM 64.0 °F 57.0 °F 78% 29.82 in 10.0 mi WNW 8.1 mph - N/A   Clear